Temperature
21 20 20 20 19 19 18 18 18 17 17 17 17 17 17 16 16 16 16 16 16 16 16 16 15 15 15 15 15 15 14 14 14 13 13 12 12 12 12 12 12 12 12
21 20 20 19 19 19 18 18 18 17 17 17 16 16 16 16 16 16 16 16 15 15 15 15 15 15 15 15 14 14 14 14 14 13 12 12 12 12 12 12 12 12 11
21 20 20 19 19 19 18 18 17 17 17 16 16 16 16 16 16 15 15 15 15 15 15 15 15 15 15 14 14 14 14 13 13 13 12 12 12 12 11 11 11 11 11
21 20 20 19 19 19 18 18 17 17 17 16 16 16 16 15 15 15 15 15 15 15 15 14 14 14 14 14 14 14 13 13 13 13 12 12 11 11 11 11 11 11 10
21 20 20 19 19 18 18 18 17 17 16 16 16 16 15 15 15 15 15 15 15 14 14 14 14 14 14 14 13 13 13 13 13 12 12 12 11 11 11 11 11 10 10
20 20 19 19 19 18 18 17 17 17 16 16 16 16 15 15 15 15 14 14 14 14 14 14 14 13 13 13 13 13 13 13 13 12 12 12 11 11 11 11 11 10 10
20 20 19 19 18 18 18 17 17 16 16 16 15 15 15 15 14 14 14 14 14 14 14 13 13 13 13 13 13 13 12 12 12 12 12 12 11 11 11 10 10 10 10
20 19 19 19 18 18 17 17 17 16 16 16 15 15 15 15 14 14 14 14 14 14 13 13 13 13 13 12 12 12 12 12 11 11 11 11 11 11 11 11 10 10 9
20 19 19 18 18 18 17 17 17 16 16 15 15 15 14 14 14 14 14 14 13 13 13 13 12 12 12 12 12 12 12 11 11 11 11 11 11 10 10 10 10 10 9
19 19 19 18 18 18 17 17 16 16 15 15 15 14 14 14 14 13 13 13 13 13 13 12 12 12 12 12 12 12 11 11 11 11 11 10 10 10 10 10 10 9 9
19 19 18 18 17 17 17 16 16 16 15 15 15 14 14 14 13 13 13 13 13 12 12 12 12 12 12 11 11 11 11 11 11 10 10 10 10 10 10 9 9 9 9
19 18 18 17 17 17 16 16 16 15 15 15 14 14 14 14 13 13 13 13 12 12 12 12 11 11 11 11 11 11 11 10 10 10 10 10 10 9 9 9 9 9 9
18 18 17 17 16 16 16 16 15 15 15 14 14 14 14 13 13 13 13 12 12 12 12 11 11 11 11 11 11 11 10 10 10 10 10 9 9 9 9 9 9 9 9
18 17 17 16 16 15 15 15 15 15 14 14 14 14 13 13 13 13 12 12 12 12 11 11 11 11 11 11 11 10 10 10 10 9 9 9 9 9 9 9 9 8 8
17 17 16 16 15 15 15 14 14 14 14 14 14 13 13 13 13 12 12 12 12 12 11 11 11 11 11 10 10 10 10 10 9 9 9 9 9 9 8 8 8 8 8
17 17 16 15 15 15 14 14 14 14 13 13 13 13 13 13 12 12 12 12 11 11 11 11 11 10 10 10 10 10 9 9 9 9 9 9 9 8 8 8 8 8 8
16 16 16 15 15 14 14 14 13 13 13 13 13 13 12 12 12 12 12 11 11 11 11 11 10 10 10 10 10 9 9 9 9 9 9 9 8 8 8 8 8 8 8
16 16 15 15 14 14 14 13 13 13 13 13 13 12 12 12 12 12 11 11 11 11 10 10 10 10 10 10 9 9 9 9 9 9 8 8 8 8 8 8 8 7 7
15 15 15 14 14 14 13 13 13 13 13 12 12 12 12 12 12 11 11 11 11 11 10 10 10 10 9 9 9 9 9 9 9 8 8 8 8 8 8 8 7 7 7
15 15 14 14 14 13 13 13 13 12 12 12 12 12 12 11 11 11 11 11 10 10 10 10 10 9 9 9 9 9 9 9 8 8 8 8 8 8 8 8 7 7 7
14 14 14 14 13 13 13 12 12 12 12 12 12 12 11 11 11 11 11 11 10 10 10 10 10 9 9 9 9 9 9 8 8 8 8 8 8 8 7 7 7 7 7
14 13 13 13 13 13 13 12 12 12 12 12 12 11 11 11 11 11 11 10 10 10 10 10 9 9 9 9 9 9 9 8 8 8 8 8 8 7 7 7 7 7 7
13 13 13 13 13 12 12 12 12 12 12 12 12 11 11 11 11 11 10 10 10 10 10 9 9 9 9 9 9 8 8 8 8 8 8 8 7 7 7 7 7 7 6
13 13 12 12 12 12 12 12 12 12 12 12 11 11 11 11 11 11 10 10 10 10 10 9 9 9 9 9 8 8 8 8 8 8 8 7 7 7 7 7 6 6 6
13 12 12 12 12 12 12 12 12 12 11 11 11 11 11 11 11 10 10 10 10 10 9 9 9 9 9 8 8 8 8 8 8 8 7 7 7 7 6 6 6 6 6
13 12 12 12 12 12 12 12 11 11 11 11 11 11 11 11 10 10 10 10 10 9 9 9 9 8 8 8 8 8 8 8 7 7 7 7 6 6 6 6 6 5 5
Wind_Speed
6 6 5 4 4 4 3 2 2 2 2 2 2 3 3 4 3 4 3 4 4 4 4 4 3 3 3 2 2 2 3 3 5 2 2 3 4 5 6 8 10 10 12
7 6 6 5 5 4 3 3 3 3 3 3 3 4 4 4 4 4 4 4 4 4 4 4 4 3 4 3 3 3 3 3 5 5 2 3 3 4 4 5 7 9 10
7 7 6 5 5 5 4 3 3 3 3 3 4 4 3 4 4 4 4 5 4 4 4 4 3 4 4 3 4 4 4 4 4 5 3 2 2 3 4 5 6 6 8
8 8 7 6 6 5 4 4 3 3 3 3 3 3 3 4 4 4 4 5 5 4 4 4 4 4 3 4 4 5 5 6 6 6 5 3 3 2 3 4 4 4 4
9 8 7 6 6 5 5 4 3 4 4 4 4 4 4 4 3 4 4 5 5 5 5 4 4 5 6 4 4 4 5 5 5 5 5 3 3 3 2 2 3 3 3
9 8 7 6 6 5 5 4 4 4 4 4 4 4 4 3 5 6 5 4 4 5 4 4 4 6 7 8 8 7 6 6 5 5 4 4 3 3 2 3 3 3 2
9 8 7 7 6 5 5 5 5 4 4 4 4 4 3 3 5 7 8 5 5 5 4 4 4 5 6 5 7 9 8 7 5 4 5 4 4 4 4 4 3 3 2
8 8 7 7 6 6 6 5 4 4 4 3 3 3 3 4 6 7 8 6 6 5 5 4 4 4 4 4 6 6 6 5 4 3 3 3 3 4 5 4 4 4 3
8 8 8 8 7 6 6 5 4 4 4 3 3 3 4 3 5 6 6 5 5 5 5 4 4 4 4 5 6 6 5 4 6 8 7 6 7 8 7 5 5 4 2
8 8 7 7 8 7 6 5 4 4 4 4 3 3 3 2 3 5 6 4 4 3 3 4 5 4 4 5 5 5 5 3 3 5 6 7 6 6 6 4 4 3 2
7 7 7 7 7 7 6 5 5 5 5 4 3 2 2 2 2 4 5 4 3 3 2 2 3 5 6 5 4 3 4 4 4 4 4 4 4 4 3 3 2 3 2
8 8 7 6 6 6 7 6 6 6 5 4 3 2 1 1 1 2 4 4 5 4 2 1 2 4 6 5 4 5 6 6 4 4 4 3 2 2 1 1 2 2 1
9 8 7 6 5 6 6 6 5 5 4 3 3 2 0 1 1 2 3 5 5 3 2 3 3 5 5 5 5 6 5 4 4 3 3 1 1 0 1 1 2 3 4
9 7 7 6 5 5 4 5 5 5 5 4 4 3 2 1 1 1 2 3 4 4 3 3 5 6 5 5 4 4 3 3 3 2 1 1 1 1 2 1 1 2 2
8 7 6 6 6 5 4 3 5 5 6 6 5 5 4 4 4 5 4 3 3 4 4 3 3 2 3 2 2 2 2 2 2 1 2 1 1 1 1 1 1 1 1
7 7 6 6 5 5 5 2 2 2 5 6 6 5 4 4 4 5 5 5 6 7 5 3 2 2 2 2 1 1 0 1 1 1 2 2 1 1 1 1 1 1 1
8 7 6 6 6 6 6 5 3 1 2 3 4 5 5 5 5 6 6 6 6 7 3 3 3 3 2 2 2 2 1 1 1 2 2 2 2 1 1 1 1 0 1
8 8 7 6 6 6 6 6 5 5 3 1 0 3 5 6 6 6 7 6 3 3 3 3 3 3 3 3 3 2 2 2 1 2 2 2 2 2 2 2 2 2 2
7 6 6 6 5 5 5 5 5 5 4 3 1 1 3 4 5 5 7 4 5 4 4 4 4 4 3 3 3 2 2 2 2 2 2 2 2 2 2 2 2 3 2
6 8 7 6 5 5 5 5 5 4 4 4 4 4 3 4 3 4 4 4 5 5 5 5 4 4 4 3 3 2 2 2 2 2 3 3 3 3 3 3 3 3 3
5 6 8 6 6 6 5 5 5 5 5 5 4 5 7 6 6 6 5 5 5 5 5 5 4 4 4 4 4 4 4 3 3 3 3 3 3 3 3 3 3 3 3
5 5 5 5 5 5 5 5 5 5 5 5 4 4 8 5 5 5 5 5 5 5 5 5 5 4 5 5 5 4 5 4 4 4 4 4 3 3 3 3 3 2 2
6 6 5 5 5 5 5 5 5 5 5 5 5 5 5 5 5 5 5 5 5 5 5 5 5 4 4 5 6 6 5 5 5 5 4 4 3 3 3 3 3 3 3
6 6 5 5 4 4 4 4 4 4 4 5 5 5 5 5 5 6 5 5 5 5 6 6 6 7 7 6 6 7 7 7 6 6 6 4 4 3 3 3 3 4 4
5 5 5 5 5 4 4 4 4 4 4 4 5 5 5 5 5 5 5 5 5 5 5 6 6 6 7 7 6 6 6 6 6 5 5 4 4 3 3 3 3 3 3
5 5 4 4 4 4 4 4 4 4 4 4 4 4 4 4 5 4 4 4 5 5 5 5 5 6 6 6 6 6 6 5 5 5 4 3 3 2 2 2 2 3 3
Wind_Direction
162 156 151 149 149 143 138 135 120 89 73 69 66 65 61 51 47 57 51 52 62 52 50 65 63 65 73 65 85 100 105 118 127 102 70 64 63 72 70 73 73 72 71
156 147 148 142 133 128 123 111 100 87 72 74 73 72 68 60 58 64 58 55 65 60 52 61 59 72 71 69 83 94 101 106 129 127 94 70 69 83 82 78 75 76 74
146 143 141 141 136 131 122 109 100 94 77 72 76 76 71 67 67 67 69 66 67 65 62 67 66 80 77 76 84 92 98 104 108 123 114 88 79 92 88 80 74 69 75
146 147 149 151 147 139 127 114 107 101 90 79 77 79 83 79 73 73 74 70 64 60 57 61 65 78 91 94 94 96 103 106 108 115 115 105 99 97 103 98 82 63 66
147 151 155 150 141 133 127 119 107 97 93 89 82 70 68 77 76 80 79 75 65 58 52 51 59 72 77 92 105 109 114 115 116 117 119 115 117 130 127 124 110 92 64
150 152 147 143 139 137 134 124 111 99 93 87 81 77 68 68 83 88 91 79 68 62 55 45 53 60 72 79 90 98 110 126 134 134 135 144 154 149 135 138 132 120 98
149 148 147 147 145 146 142 129 124 117 105 95 87 84 76 70 89 93 89 87 74 64 59 52 55 56 67 84 82 78 77 85 109 144 149 162 168 171 157 146 138 124 114
149 150 151 150 150 147 139 137 133 123 116 107 97 91 87 82 93 97 96 87 77 62 55 59 66 54 65 90 94 83 71 63 70 102 135 154 157 165 165 154 142 116 92
154 157 158 155 153 150 147 146 138 131 121 112 107 99 96 85 95 107 106 94 80 63 52 54 64 65 65 93 101 96 79 60 66 76 86 97 106 115 129 125 122 123 113
163 159 155 152 152 155 154 145 132 131 131 124 104 93 103 98 104 116 119 111 95 77 58 49 55 71 77 96 111 112 100 77 71 69 69 77 88 100 108 123 144 143 126
152 147 147 150 152 152 145 137 134 132 125 119 108 86 81 84 103 121 130 131 134 116 87 58 45 64 79 86 100 113 129 121 99 90 83 79 79 79 79 92 125 148 148
145 146 149 151 152 148 143 139 138 137 131 125 113 87 55 54 91 134 140 142 141 131 129 104 70 79 84 88 97 104 108 105 102 95 88 81 82 80 64 58 101 117 138
144 149 150 148 146 148 150 150 146 147 148 152 150 152 139 45 63 134 136 134 137 132 136 126 100 91 87 82 91 105 109 109 108 103 103 87 61 23 59 64 61 70 68
150 153 152 150 149 147 149 158 163 167 168 170 177 183 190 211 219 150 138 134 126 121 119 98 86 82 81 79 78 80 94 112 123 126 123 93 73 83 76 64 71 70 70
155 155 155 156 155 154 154 163 175 187 187 182 192 190 190 212 226 193 168 168 163 152 130 102 88 87 83 72 67 69 80 95 102 108 117 111 103 93 67 58 85 94 91
159 162 164 163 161 161 159 133 74 163 181 185 187 188 208 207 181 173 172 163 154 146 128 129 135 142 153 162 157 128 103 137 156 157 148 150 152 145 118 88 108 129 154
167 169 168 169 170 173 174 171 168 86 102 161 183 185 191 187 178 170 161 148 147 144 144 166 176 184 190 194 197 197 207 221 184 180 178 177 172 172 173 179 178 201 242
163 166 170 176 177 180 182 182 181 179 184 221 198 174 183 181 177 169 154 133 134 157 185 191 200 203 203 209 214 219 218 187 173 185 191 193 189 192 204 217 223 236 247
163 167 168 170 176 179 180 179 180 181 183 185 176 164 167 165 157 158 156 168 184 193 200 207 209 207 208 210 212 208 204 193 186 189 201 206 206 207 224 236 241 240 242
165 165 165 168 172 176 178 178 180 183 189 194 201 200 167 153 170 179 189 195 199 206 205 207 212 211 206 204 201 190 195 206 204 208 216 219 217 215 225 236 242 247 252
163 169 167 168 176 179 181 186 188 189 196 204 212 203 182 187 196 198 199 203 208 212 211 209 209 207 206 202 200 197 201 212 216 219 222 221 216 219 228 234 239 245 255
163 167 172 176 179 181 186 188 189 194 200 205 208 195 187 196 203 206 208 210 213 212 206 204 211 210 205 204 204 206 210 215 217 219 223 223 220 224 226 229 237 245 250
164 167 171 177 181 180 185 191 193 198 201 205 203 196 192 202 205 209 212 212 208 205 200 200 207 210 208 207 207 206 212 220 220 215 216 221 223 224 224 226 232 242 250
162 166 173 179 179 185 191 196 199 200 199 199 201 203 201 204 207 209 211 208 201 197 195 198 205 207 203 205 212 216 221 223 217 212 210 213 219 226 225 228 235 243 247
162 167 174 178 182 188 191 196 200 198 197 201 207 209 208 204 206 207 207 204 199 200 199 200 205 208 210 211 212 217 218 213 206 203 201 206 209 209 220 234 244 252 256
165 167 170 174 183 187 188 193 199 201 205 208 209 210 206 201 200 201 203 198 193 193 195 195 196 198 203 208 212 208 199 191 188 187 185 190 194 200 210 230 247 253 257
Height
1540 1542 1544 1545 1545 1546 1546 1546 1546 1546 1546 1545 1544 1543 1542 1542 1541 1540 1539 1538 1537 1536 1536 1535 1535 1535 1535 1535 1535 1535 1536 1537 1537 1538 1540 1541 1541 1541 1541 1541 1541 1540 1540
1539 1541 1542 1544 1544 1545 1545 1545 1545 1545 1545 1544 1544 1543 1542 1541 1540 1540 1539 1538 1537 1536 1535 1535 1535 1534 1534 1534 1534 1535 1535 1536 1537 1537 1539 1540 1541 1542 1542 1542 1542 1541 1541
1537 1540 1541 1543 1543 1544 1544 1545 1545 1544 1544 1544 1543 1542 1542 1541 1540 1539 1539 1538 1537 1536 1536 1535 1535 1535 1534 1534 1534 1535 1535 1536 1537 1537 1539 1540 1541 1542 1542 1542 1542 1542 1542
1536 1538 1540 1541 1542 1543 1543 1544 1544 1544 1544 1543 1543 1542 1542 1541 1541 1540 1539 1538 1538 1537 1536 1536 1535 1535 1534 1534 1535 1535 1536 1536 1537 1538 1539 1540 1541 1542 1542 1542 1543 1543 1543
1534 1536 1538 1540 1541 1542 1542 1543 1543 1543 1543 1543 1543 1542 1542 1541 1541 1540 1540 1539 1538 1537 1537 1536 1536 1536 1535 1535 1535 1536 1536 1537 1538 1538 1539 1540 1541 1541 1542 1543 1543 1544 1544
1532 1535 1537 1538 1540 1541 1542 1542 1543 1543 1543 1543 1543 1542 1542 1542 1541 1541 1540 1539 1538 1537 1537 1537 1536 1536 1536 1536 1536 1537 1537 1538 1538 1539 1539 1540 1541 1542 1542 1543 1543 1544 1544
1531 1533 1535 1537 1538 1539 1540 1541 1542 1542 1542 1543 1543 1542 1542 1542 1542 1541 1540 1540 1539 1538 1537 1537 1537 1537 1537 1537 1537 1538 1538 1539 1539 1540 1540 1540 1541 1542 1542 1543 1544 1544 1544
1529 1531 1533 1535 1537 1538 1539 1540 1541 1541 1542 1542 1542 1542 1542 1542 1542 1541 1541 1540 1539 1539 1538 1538 1538 1538 1538 1538 1538 1538 1539 1539 1540 1540 1541 1541 1542 1542 1543 1544 1544 1544 1545
1527 1529 1531 1533 1535 1536 1537 1539 1539 1540 1541 1541 1542 1542 1542 1542 1542 1542 1541 1541 1540 1540 1539 1539 1539 1539 1539 1539 1539 1539 1539 1540 1540 1541 1541 1542 1542 1543 1543 1544 1544 1544 1544
1525 1528 1530 1531 1533 1534 1536 1537 1538 1539 1540 1540 1541 1541 1542 1542 1542 1542 1542 1541 1541 1541 1540 1540 1540 1540 1540 1540 1540 1540 1540 1541 1541 1541 1542 1542 1543 1543 1544 1544 1544 1544 1544
1524 1526 1528 1530 1531 1533 1534 1535 1537 1538 1538 1539 1540 1540 1541 1542 1542 1542 1542 1541 1541 1541 1541 1541 1541 1541 1540 1540 1541 1541 1541 1542 1542 1542 1542 1543 1543 1543 1544 1544 1544 1545 1545
1522 1524 1526 1528 1529 1531 1532 1533 1535 1536 1537 1538 1538 1539 1540 1541 1541 1542 1542 1541 1541 1541 1541 1541 1541 1541 1541 1541 1541 1541 1542 1542 1542 1543 1543 1543 1543 1543 1544 1544 1544 1544 1545
1519 1521 1524 1526 1527 1529 1530 1531 1532 1534 1535 1536 1537 1538 1539 1540 1540 1540 1541 1541 1541 1541 1541 1541 1541 1541 1541 1541 1542 1542 1542 1542 1543 1543 1543 1543 1543 1544 1544 1544 1544 1544 1544
1517 1519 1521 1523 1525 1526 1528 1529 1530 1532 1533 1534 1535 1536 1537 1538 1538 1539 1539 1539 1540 1540 1540 1540 1541 1541 1541 1541 1541 1541 1541 1542 1542 1542 1542 1543 1543 1543 1543 1543 1543 1544 1543
1515 1517 1519 1521 1523 1524 1525 1527 1528 1530 1531 1533 1534 1535 1535 1535 1537 1537 1538 1538 1538 1539 1539 1539 1540 1540 1540 1541 1541 1541 1541 1541 1541 1542 1542 1542 1542 1542 1542 1542 1542 1542 1542
1512 1514 1516 1518 1520 1521 1523 1524 1526 1528 1529 1530 1531 1532 1533 1534 1535 1535 1536 1536 1537 1537 1538 1538 1538 1539 1539 1540 1540 1540 1540 1540 1541 1541 1541 1541 1541 1542 1542 1542 1541 1541 1541
1509 1511 1513 1515 1517 1519 1520 1521 1523 1525 1526 1527 1528 1529 1530 1531 1532 1533 1533 1534 1535 1535 1536 1536 1537 1537 1538 1538 1539 1539 1539 1539 1539 1540 1540 1541 1541 1541 1541 1540 1540 1540 1540
1507 1509 1510 1512 1514 1516 1518 1519 1520 1521 1522 1524 1525 1527 1528 1529 1530 1531 1531 1532 1532 1533 1534 1534 1535 1536 1536 1536 1537 1537 1537 1537 1538 1538 1539 1539 1539 1539 1539 1538 1538 1538 1538
1504 1505 1507 1509 1511 1513 1515 1516 1517 1519 1520 1521 1522 1524 1525 1526 1527 1528 1528 1529 1530 1530 1531 1532 1533 1533 1534 1534 1535 1535 1535 1535 1536 1536 1537 1537 1537 1537 1536 1536 1536 1536 1535
1500 1502 1504 1506 1508 1510 1511 1513 1514 1515 1517 1518 1519 1520 1522 1523 1523 1524 1525 1526 1527 1528 1528 1529 1530 1531 1531 1532 1532 1532 1533 1533 1534 1534 1534 1534 1534 1534 1534 1534 1533 1533 1532
1497 1499 1500 1502 1504 1506 1508 1509 1511 1512 1513 1514 1516 1517 1518 1519 1520 1521 1521 1522 1523 1524 1525 1526 1527 1527 1528 1529 1529 1530 1530 1531 1531 1531 1531 1532 1532 1531 1531 1531 1530 1530 1529
1494 1496 1498 1499 1501 1503 1504 1506 1507 1509 1510 1511 1512 1514 1515 1515 1516 1517 1518 1519 1520 1521 1522 1522 1523 1524 1524 1525 1526 1526 1527 1527 1528 1528 1528 1528 1528 1528 1528 1528 1527 1527 1526
1491 1493 1495 1497 1499 1501 1502 1503 1504 1505 1506 1507 1509 1510 1511 1511 1512 1513 1514 1515 1516 1517 1518 1519 1519 1520 1520 1521 1522 1523 1523 1524 1524 1525 1525 1525 1525 1525 1525 1524 1524 1524 1523
1489 1491 1493 1494 1496 1498 1499 1500 1501 1502 1503 1504 1505 1506 1507 1508 1509 1510 1511 1511 1512 1513 1514 1515 1515 1516 1517 1517 1518 1518 1519 1520 1521 1521 1521 1521 1521 1521 1521 1521 1520 1520 1520
1486 1489 1491 1492 1494 1495 1496 1497 1498 1499 1500 1501 1502 1503 1504 1504 1505 1506 1507 1508 1509 1510 1510 1511 1512 1512 1513 1514 1514 1515 1516 1516 1517 1517 1517 1517 1517 1517 1517 1517 1516 1516 1515
1485 1487 1489 1491 1492 1493 1494 1495 1496 1497 1498 1498 1499 1500 1501 1501 1502 1503 1504 1505 1506 1506 1507 1508 1508 1509 1510 1510 1511 1512 1512 1513 1513 1513 1513 1513 1513 1513 1513 1513 1512 1512 1511